ROMMA est une association bénévole à but non lucratif. Votre soutien est indispensable : ADHERER à ROMMA ou FAIRE un DON

Le Versoud - (38, Isère)

Vallée du Grésivaudan (220 m)   Longitude: 05° 51' 44" E   Latitude: 45° 13' 06" N Station partenaire n°6
 

Détail journalier du     <<     >>

Température Humidité Pression Vent Dir Rafale Dir. rafale Ensol.
Heure (°C) (%) (hPa) (km/h) (km/h) (min)
01:00 23.674101300---0
02:00 22.872101300---0
03:00 21.873101300---0
04:00 21.179101300---0
05:00 20.583101300---0
06:00 20.180101200---0
07:00 19.784101200---0
08:00 22.870101200---50
09:00 24.863101200---60
10:00 26.261101202N60
11:00 27.654101202N60
12:00 30.344101105NNE60
13:00 30.050101105NNE15
14:00 31.045101105NNE10
15:00 32.14510111NNE15N45
16:00 31.24810107NE23NNE60
17:00 31.54910095N23NE55
18:00 31.64810092NE18N55
19:00 29.556100906NE0
20:00 28.959100902ENE10
21:00 28.261100900---40
22:00 27.357101006NE0
23:00 26.659101103ENE0
minuit 26.1481013016NE0

Graphique du 06-07-2019

 

Serveur OMMA